Regional Weather Roundup
Issued by NWS

Home | Current Version | Previous Version | Text Only | Print | Product List | Glossary Off
Versions: 1 2 3 4 5 6 7 8 9 10 11 12 13 14 15 16 17 18 19 20 21 22 23 24 25 26 27 28 29 30 31 32 33 34 35 36 37 38 39 40 41 42 43 44 45 46 47 48 49 50

000
ASUS44 KMEG 300400
RWRTN
TENNESSEE HOURLY STATE WEATHER ROUNDUP
NATIONAL WEATHER SERVICE MEMPHIS TN
1100 PM CDT MON JUN 29 2015

TNZ002-004-019-021-049-052-054-088>092-300500-
WEST TENNESSEE

CITY           SKY/WX    TMP DP  RH WIND       PRES   REMARKS
MEMPHIS INTL   TSTM      75  72  90 E10       29.92R FOG
NWS MEMPHIS      N/A     74 N/A N/A MISG        N/A
JACKSON        PTCLDY    76  70  82 SW8       29.90R
DYERSBURG        N/A    N/A N/A N/A MISG        N/A
PARIS          PTCLDY    70  66  88 CALM      29.90S
LEXINGTON      CLEAR     75  66  73 SW8       29.89F
$$

TNZ008-025-027-028-033-062-065-066-300500-
NORTH MIDDLE TENNESSEE

CITY           SKY/WX    TMP DP  RH WIND       PRES   REMARKS
NASHVILLE      CLOUDY    72  71  97 S3        29.91F
CLARKSVILLE    MOCLDY    71  68  90 CALM      29.90S
COOKEVILLE     MOCLDY    75  70  83 CALM      29.94S
CROSSVILLE     CLOUDY    69  66  90 NE5       30.00S
$$

TNZ061-075-076-078-094-096-097-300500-
SOUTH MIDDLE TENNESSEE

CITY           SKY/WX    TMP DP  RH WIND       PRES   REMARKS
FAYETTEVILLE   PTCLDY    73  64  73 CALM      29.96F
TULLAHOMA      CLEAR     72  64  78 CALM      29.97S
WINCHESTER     MOCLDY    73  66  78 CALM      29.97S
SHELBYVILLE    CLEAR     72  70  94 CALM      29.95F
$$

TNZ017-018-042-046-047-300500-
NORTHEAST TENNESSEE

CITY           SKY/WX    TMP DP  RH WIND       PRES   REMARKS
TRI CITIES     MOCLDY    69  63  81 SW8       29.96F
$$

TNZ012-013-036-069-073-074-300500-
CENTRAL EAST TENNESSEE

CITY           SKY/WX    TMP DP  RH WIND       PRES   REMARKS
KNOXVILLE      LGT RAIN  73  65  75 N6        29.94S
OAK RIDGE      HVY RAIN  68  59  73 VRB5G26   29.99S
GATLINBURG     PTCLDY    73  61  64 SW3       29.96R
$$

TNZ083-085-099-300500-
SOUTHEAST TENNESSEE

CITY           SKY/WX    TMP DP  RH WIND       PRES   REMARKS
CHATTANOOGA    MOCLDY    78  63  59 S6        29.96R
$$

SKY/WX REPORTED AS FAIR MEANS FEW OR NO CLOUDS BELOW
12 THOUSAND FEET.



USA.gov is the U.S. government's official web portal to all federal, state and local government web resources and services.